CZ-6A DEB, 54990

Orbit data source: Space-Track

CZ-6A DEB, 54990 is space debris in SSO originally from a launch on Fri, 11 Nov 2022 UTC launched from the Taiyaun Space Center, China (TSC). Debris objects in space refer to the collection of defunct objects orbiting the Earth. Examples of debris include non-operational satellites, rocket bodies, and fragments generated from explosions, collisions, or faulty payload assembly.

Loading next visibility...
Identifier
54990, 2022-151UF
Orbit
SSO
Country
Flag of CNCN / PRC
Related business
Manufacturer
SAST
Mission
Spacecraft
Bus & Motor
Unknown
Mass
Unknown
Launch date (UTC)
2022-11-11 (4 years ago)
Launch vehicle
Unknown
Launch site
Taiyaun Space Center, China (TSC)
Object type
Payload
Rocket body
Debris
Shape & HBR
Unknown shape, 0.1 m
Radar Cross Section
Small (<0.1 m²)

Expand to show TLE details & history
Last TLE update: 21 hours ago

TLE from 21 hours ago
0 CZ-6A DEB
1 54990U 22151UF  26144.10948664  .00005381  00000-0  11044-2 0  9992
2 54990  98.6359 197.1937 0075583  43.2426 317.4672 14.59308622184873
Epoch: 2026-05-24T02:37Z
TLE epoch observation values (Epoch: 2026-05-24T02:37:39.645Z)
Latitude
-0.00007°
Longitude
-83.93782°
Altitude
659.159 km
Speed
7.549 km/s
True Right ascension
13h 08m 46s
True Declination
0° 00' 00"
Sunlit
Object was in full shadow at epoch
Visualization orbit readout
Latitude
Unknown
Longitude
Unknown
Altitude
Unknown
Speed
Unknown
Apparent Right ascension
Unknown
Apparent Declination
Unknown
Sunlit
N/A
Visualization observer readout
Local Sidereal Time
09:15:05
Azimuth
Unknown
Elevation
Unknown
Doppler factor
Unknown
Orbital elements
Apogee altitude
745.952 km
Perigee altitude
639.068 km
Semi-major axis
7,070.647 km
Eccentricity
0.00756
Inclination
98.6359°
RAAN
197.1937°
Arg. of periapsis
43.2426°
True anomaly
316.8776°
Mean anomaly
317.4672°
Eccentric anomaly
317.17281°
Mean motion
3.65052 °/min
Orbital period
98.62 mins
BSTAR
0.0011044
Loading maneuver chart data...
Computing Atmospheric mass density...
Loading historical data...
Loading historical data...
Loading historical data...
Loading historical data...
Loading historical data...
Loading historical data...
Loading historical data...

Documentation

Showing up to 5 results
|